Regional Weather Roundup
Issued by NWS

Home | Current Version | Previous Version | Graphics & Text | Print | Product List | Glossary On
Versions: 1 2 3 4 5 6 7 8 9 10 11 12 13 14 15 16 17 18 19 20 21 22 23 24 25 26 27 28 29 30 31 32 33 34 35 36 37 38 39 40 41 42 43 44 45 46 47 48 49 50
000
ASUS43 KIND 241309
RWRIN

WEATHER ROUNDUP FOR INDIANA
NATIONAL WEATHER SERVICE INDIANAPOLIS IN
800 AM EST WED DEC 24 2014

NOTE: "FAIR" INDICATES FEW OR NO CLOUDS BELOW 12,000 FEET WITH NO
SIGNIFICANT WEATHER AND/OR OBSTRUCTIONS TO VISIBILITY.

* - STATION DOES NOT REPORT WEATHER SUCH AS PRECIPITATION OR FOG.

+ - STATION NOT QUALITY CONTROLLED BY THE NATIONAL WEATHER SERVICE.
    USE DATA WITH CAUTION...ESPECIALLY DEWPOINT AND RELATIVE
    HUMIDITY OBSERVATIONS.

INZ001>003-010>013-019-020-241400-
NORTHWEST INDIANA

CITY           SKY/WX    TMP DP  RH WIND       PRES   REMARKS
KNOX *+        CLOUDY    40  37  87 N6        29.62R
LA PORTE +     DRIZZLE   41  41 100 E3        29.63R
MICHIGAN CITY+ RAIN      39  37  93 CALM      29.62F
MONTICELLO +   RAIN      40  40  98 N9        29.59F
RENSSELAER +   DRIZZLE   41  41 100 N7        29.61F
VALPARAISO     LGT RAIN  39  38  96 N5        29.62F FOG

$$

LMZ046-743>745-241400-
SOUTHERN LAKE MICHIGAN

STATION/POSITION TIME  TEMP WIND        PRES
                       AIR  DIR/SP/G
                 (UTC) (F)  (DEG/KT/KT) (MB)
MICHIGAN CITY    1300   38  360/  5/  6   N/A

$$

INZ004-005-014>016-021>024-241400-
NORTH CENTRAL INDIANA

CITY           SKY/WX    TMP DP  RH WIND       PRES   REMARKS
ELKHART        LGT RAIN  39  37  93 N7        29.60F
GOSHEN         LGT RAIN  41  39  93 N13       29.57F
LOGANSPORT +   RAIN      39  37  93 N6        29.60F
PERU/GRISSOM   RAIN      41  41 100 N8        29.58S
ROCHESTER +    CLOUDY    43  43 100 N7        29.60S FOG
SOUTH BEND     LGT RAIN  40  38  93 N8        29.62F
WARSAW +       LGT RAIN  39  39 100 N7        29.57F

$$

INZ006>009-017-018-025>027-241400-
NORTHEAST INDIANA

CITY           SKY/WX    TMP DP  RH WIND       PRES   REMARKS
ANGOLA *+      CLOUDY    39  39 100 N6        29.55F
AUBURN +       CLOUDY    41  37  87 N9        29.57F FOG
FORT WAYNE     DRIZZLE   41  40  96 N8        29.57S FOG
HUNTINGTON +   DRIZZLE   40  40  98 N5        29.57S

$$

INZ028-029-035-036-043>045-051>053-241400-
WEST CENTRAL INDIANA

CITY           SKY/WX    TMP DP  RH WIND       PRES   REMARKS
GREENCASTLE +  MIX PCPN  41  36  81 N8        29.59S
LAFAYETTE      LGT RAIN  40  39  97 N7        29.61S FOG
TERRE HAUTE    LGT RAIN  42  40  92 N8        29.60R FOG

$$

INZ030>032-037>040-046>048-054>057-064-065-241400-
CENTRAL INDIANA

CITY           SKY/WX    TMP DP  RH WIND       PRES   REMARKS
CP ATTERBURY + DRIZZLE   43  41  93 MISG      29.57S
FRANKFORT +    DRIZZLE  N/A N/A N/A N8        29.60F
INDIANAPOLIS   LGT RAIN  40  39  97 N9        29.56F FOG
-EAGLE CREEK   CLOUDY    41  39  93 N8        29.57S FOG
KOKOMO *+      CLOUDY    41  37  87 N10       29.58S
MARION +       CLOUDY    40  40  99 N9        29.57F
MT COMFORT *+  CLOUDY    41 N/A N/A N13       29.56S
SHELBYVILLE    CLOUDY    44  41  89 N9        29.55F FOG
ZIONSVILLE +   DRIZZLE   41  38  88 N10       29.57S

$$

INZ033-034-041-042-049-050-058-059-241400-
EAST CENTRAL INDIANA

CITY           SKY/WX    TMP DP  RH WIND       PRES   REMARKS
MUNCIE         CLOUDY    42  40  92 N7        29.56S FOG

$$

INZ060-061-067>069-081>083-085>088-241400-
SOUTHWEST INDIANA

CITY           SKY/WX    TMP DP  RH WIND       PRES   REMARKS
EVANSVILLE     CLOUDY    45  42  89 N10       29.58F FOG
HUNTINGBURG *+ CLOUDY    43  39  87 N9        29.56F
WASHINGTON +   DRIZZLE   42  39  88 N10       29.57F

$$

INZ062-063-066-070>080-084-089>092-241400-
SOUTH CENTRAL AND SOUTHEAST INDIANA

CITY           SKY/WX    TMP DP  RH WIND       PRES   REMARKS
BLOOMINGTON    LGT RAIN  42  41  96 N9        29.56S FOG

$$



USA.gov is the U.S. government's official web portal to all federal, state and local government web resources and services.